Location: Alexandria
(38.8050°N, 77.0470°W)
Time: 03:19:47
(UTC-05:00)

Envisat - Pass Details

Date: 15 February 2018
Orbit: 764 x 766 km, 98.2° (Epoch: 23 February)

Event Time Altitude Azimuth Distance (km) Brightness Sun altitude
Exits shadow 19:15:23 - 150° (SSE) 2,627 5.5 -18.0°
Reaches altitude 10° 19:16:14 10° 148° (SSE) 2,295 5.2 -18.2°
Maximum altitude 19:21:09 53° 73° (ENE) 935 3.0 -19.1°
Drops below altitude 10° 19:26:05 10° 357° (N) 2,309 5.5 -20.1°
Sets 19:28:26 0° 353° (N) 3,239 6.3 -20.6°
